Location: Kawakawa
(35.3830°S, 174.0670°E)
Time: 01:45:23
(UTC+13:00)

Cosmos 968 Rocket - Pass Details

Date: 24 January 2019
Orbit: 740 x 771 km, 74.0° (Epoch: 13 October)

Event Time Altitude Azimuth Distance (km) Brightness Sun altitude
Exits shadow 23:02:57 52° 102° (ESE) 943 3.7 -24.5°
Drops below altitude 10° 23:07:31 10° 153° (SSE) 2,320 6.3 -25.1°
Sets 23:09:58 0° 157° (SSE) 3,258 7.1 -25.4°
